GLOBALSTAR M095

Last updated on Mon Sep 21 2026 00:03:12 GMT+0000 (Coordinated Universal Time)

1 39077U 13005F 26263.40788721 -.00000103 00000+0 62121-5 0 9992 2 39077 52.0112 351.3758 0000901 126.9737 233.1212 12.62264464627899
UTC large
Height (km)
Speed (km/s)
/
Latitude / Longitude
Inclination (degrees)
Orbital Period (minutes)
Azimuth
Elevation
Range (km)
Doppler Factor

Next 0 passes for location: London (51.5072 / 0.1276)

No passes found over London.
GLOBALSTAR M095